Ketchikan, AK

5:20 PM AKDT on September 24, 2018 (GMT -0800)
Ketchikan International

Weather History for PAKT - July, 2018

Change the Weather History Date:

Monday, July 30, 2018

  Actual Average Record
Temperature  
Mean Temperature 71 °F -  
Max Temperature 79 °F 66 °F 87 °F (1976)
Min Temperature 64 °F 52 °F 46 °F (1999)
Cooling Degree Days 6    
Growing Degree Days 21 (Base 50)    
Moisture  
Dew Point 57 °F    
Average Humidity 62    
Maximum Humidity 78    
Minimum Humidity 47    
Precipitation  
Precipitation 0.00 in - - ()
Sea Level Pressure  
Sea Level Pressure 30.05 in    
Wind  
Wind Speed 9 mph (NW)    
Max Wind Speed 14 mph    
Max Gust Speed 20 mph    
Visibility 10 miles    
Events      
Averages and records for this station are not official NWS values.
T = Trace of Precipitation, MM = Missing Value Source: NWS Daily Summary

Daily Weather History Graph

Daily Weather History Graph

Search for Another Location

Airport or City:

Astronomy

Jul. 30, 2018 Rise Set
Actual Time 4:50 AM AKDT 8:54 PM AKDT
Civil Twilight 4:02 AM AKDT 9:41 PM AKDT
Nautical Twilight 2:52 AM AKDT 10:51 PM AKDT
Astronomical Twilight 1:25 AM AKDT 12:20 AM AKDT
Moon 10:16 PM AKDT (7/30) 7:50 AM AKDT (7/30)
Length of Visible Light 17h 39m
Length of Day
16h 03m
Waning Gibbous, 92% of the Moon is Illuminated
Jul 30
Waning Gibbous
Aug 4
Last Quarter
Aug 11
New
Aug 17
First Quarter
Aug 26
Full

Hourly Weather History & Observations

Time (AKDT) Temp. Dew Point Humidity Pressure Visibility Wind Dir Wind Speed Gust Speed Precip Events Conditions
12:53 AM 66.9 °F 57.0 °F 70% 30.10 in 10.0 mi NNW 9.2 mph - N/A   Clear
1:53 AM 66.0 °F 57.0 °F 73% 30.09 in 10.0 mi NW 8.1 mph - N/A   Clear
2:53 AM 64.9 °F 57.0 °F 75% 30.09 in 10.0 mi North 6.9 mph - N/A   Clear
3:53 AM 66.0 °F 57.0 °F 73% 30.09 in 10.0 mi NNW 8.1 mph - N/A   Clear
4:53 AM 64.0 °F 57.0 °F 78% 30.09 in 10.0 mi NNW 5.8 mph - N/A   Clear
5:53 AM 66.0 °F 55.9 °F 70% 30.09 in 10.0 mi NW 9.2 mph - N/A   Clear
6:02 AM 66.0 °F 55.9 °F 70% 30.08 in 10.0 mi NW 6.9 mph - N/A   Clear
6:53 AM 69.8 °F 55.4 °F 60% 30.08 in 10.0 mi NW 10.4 mph - N/A   Clear
7:53 AM 71.6 °F 57.2 °F 60% 30.08 in 10.0 mi NNW 10.4 mph - N/A   Clear
8:53 AM 71.6 °F 57.2 °F 60% 30.08 in 10.0 mi North 9.2 mph - N/A   Clear
9:53 AM 73.4 °F 57.2 °F 57% 30.07 in 10.0 mi North 11.5 mph - N/A   Clear
10:53 AM 77.0 °F 57.2 °F 50% 30.07 in 10.0 mi NW 9.2 mph 19.6 mph N/A   Clear
11:53 AM 77.0 °F 57.2 °F 50% 30.06 in 10.0 mi NNW 13.8 mph - N/A   Clear
12:53 PM 78.8 °F 57.2 °F 47% 30.05 in 10.0 mi NNW 12.7 mph - N/A   Clear
1:53 PM 78.8 °F 57.2 °F 47% 30.04 in 10.0 mi NW 8.1 mph - N/A   Clear
2:53 PM 77.0 °F 57.2 °F 50% 30.04 in 10.0 mi NNW 12.7 mph - N/A   Clear
3:53 PM 75.2 °F 59.0 °F 57% 30.02 in 10.0 mi NW 12.7 mph - N/A   Clear
4:53 PM 75.0 °F 59.0 °F 57% 30.01 in 10.0 mi WNW 9.2 mph - N/A   Clear
5:53 PM 75.0 °F 59.0 °F 57% 29.99 in 10.0 mi NW 9.2 mph - N/A   Clear
6:53 PM 75.0 °F 59.0 °F 57% 29.99 in 10.0 mi NW 9.2 mph - N/A   Clear
7:53 PM 73.0 °F 59.0 °F 61% 29.99 in 10.0 mi NW 8.1 mph - N/A   Clear
8:53 PM 69.1 °F 59.0 °F 70% 29.99 in 10.0 mi West 3.5 mph - N/A   Clear
9:53 PM 69.1 °F 57.0 °F 65% 29.99 in 10.0 mi West 5.8 mph - N/A   Clear
10:53 PM 66.9 °F 55.9 °F 68% 30.00 in 10.0 mi WNW 4.6 mph - N/A   Clear
11:53 PM 68.0 °F 55.9 °F 65% 29.99 in 10.0 mi NW 6.9 mph - N/A   Clear